Regional Weather Roundup
Issued by NWS San Diego, CA

Home | Current Version | Previous Version | Text Only | Print | Product List | Glossary On
Versions: 1 2 3 4 5 6 7 8 9 10 11 12 13 14 15 16 17 18 19 20 21 22 23 24 25 26 27 28 29 30 31 32 33 34 35 36 37 38 39 40 41 42 43 44 45 46 47 48 49 50
000
ASUS46 KSGX 070111
RWRSGX

SAN DIEGO HOURLY WEATHER ROUNDUP
NATIONAL WEATHER SERVICE SAN DIEGO CA
600 PM PDT WED MAY 06 2015

NOTE: "FAIR" INDICATES FEW OR NO CLOUDS BELOW 12,000 FEET WITH NO
SIGNIFICANT WEATHER AND/OR OBSTRUCTIONS TO VISIBILITY.

CAZ042-043-060-061-PZZ750-775-070200-

GREATER SAN DIEGO AREA

CITY           SKY/WX    TMP DP  RH WIND       PRES   REMARKS
LINDBERGH FLD  CLOUDY    64  51  62 W10       29.89R
POINT LOMA       N/A     60  51  71 W10         N/A
CHULA VISTA      N/A     62  55  77 W7        29.81S
IMPERIAL BEACH CLOUDY    63  53  70 W12       29.88S
BROWN FIELD    CLOUDY    60  52  74 W9        29.87S
MIRAMAR MCAS   CLOUDY    63  51  65 W12       29.87R
MONTGOMERY FLD CLOUDY    62  51  67 W9        29.87R

$$

NORTH SAN DIEGO COUNTY

CITY           SKY/WX    TMP DP  RH WIND       PRES   REMARKS
CAMP PENDLETON CLOUDY    64  51  62 SW8       29.85S
OCEANSIDE AP   CLOUDY    63  53  70 W10G17    29.85S
VISTA            N/A     61  54  76 SW9       29.85R
CARLSBAD       CLOUDY    61  53  75 W12       29.86R
FALLBROOK        N/A     64  55  72 S7        29.85R
SAN MARCOS       N/A     60  53  77 W10       29.85R

$$

EAST SAN DIEGO COUNTY

CITY           SKY/WX    TMP DP  RH WIND       PRES   REMARKS
RAMONA         CLOUDY    58  49  72 W13       29.86R
SANTEE LAKES     N/A     62  53  73 W7        29.86R
LA MESA          N/A     60  53  76 W7        29.80S
DESCANSO N       N/A     51  47  85 W5        29.76R
MT. LAGUNA OBS   N/A     42  40  90 W8        29.48S
CAMPO            N/A     54  46  74 SW16      29.82S

$$

ORANGE COUNTY AND THE LOS ANGELES BASIN

CITY           SKY/WX    TMP DP  RH WIND       PRES   REMARKS
JOHN WAYNE AP  PTSUNNY   63  49  60 SW8       29.85S
LAKE FOREST FR   N/A     60  48  66 CALM      29.75S
SANTA ANA        N/A     67  52  59 SW6       29.80S
HUNTINGTON BCH   N/A     63  55  74 W7        29.87S
LOS ALAMITOS   PTSUNNY   65  50  58 SW14      29.85R
FULLERTON      CLOUDY    66  48  52 S10       29.83S
LONG BEACH     PTSUNNY   66  49  54 W12       29.84S
L.A. AP        MOSUNNY   61  50  67 W17       29.86R
L.A. DOWNTOWN  MOSUNNY   63  48  58 W7        29.84S

$$

THE INLAND EMPIRE

CITY           SKY/WX    TMP DP  RH WIND       PRES   REMARKS
CORONA         PTSUNNY   65  49  56 W8G17     29.83S
CHINO          PTSUNNY   66  48  52 SW14      29.83S
ONTARIO        SUNNY     63  48  58 W10G20    29.82S
SAN BERNARDINO PTSUNNY   64  43  45 W8        29.82S
RIVERSIDE AP   PTSUNNY   65  47  52 W13       29.82S
RIV CYN CREST    N/A     66  55  68 W7          N/A
MORENO VALLEY    N/A     66  52  60 W5        29.79S
MARCH ARB      MOSUNNY   66  46  48 NW13G18   29.82R
HORSETHIEF CYN   N/A     65  47  53 SW3       29.79S
MENIFEE          N/A     65  53  65 SW5       29.87S
HEMET EAST       N/A     70  47  44 CALM      29.79S
FRENCH VALLEY  FAIR      63  48  59 S12G17    29.84R
TEMECULA         N/A     64  52  65 SW13      29.78S

$$

SAN BERNARDINO AND RIVERSIDE COUNTY MOUNTAINS

CITY           SKY/WX    TMP DP  RH WIND       PRES   REMARKS
BIG BEAR AP    SUNNY     48  30  49 W14       29.88S

$$

SOUTHERN DESERT INCLUDING THE COACHELLA VALLEY

CITY           SKY/WX    TMP DP  RH WIND       PRES   REMARKS
PALM SPRINGS   SUNNY     80  43  26 NW20      29.66F
THOUSAND PALMS   N/A     78  44  29 W18       29.64F
THERMAL        SUNNY     84  40  21 NW12      29.61F
BLYTHE         SUNNY     85  40  20 S12G22    29.64S
IMPERIAL AP    SUNNY     80  43  26 W21G29    29.64S
EL CENTRO NAS  MOSUNNY   80  42  25 W26       29.67S
YUMA AZ        SUNNY     83  46  27 S9        29.66F
MEXICALI       SUNNY     84  37  18 CALM      29.65F

$$

UPPER DESERT

CITY           SKY/WX    TMP DP  RH WIND       PRES   REMARKS
VICTORVILLE AP SUNNY     66  37  34 S18       29.75S
HESPERIA         N/A     60  43  52 SW20      29.85S
APPLE VALLEY     N/A     62  41  45 S16G24    29.84S
PALMDALE       SUNNY     60  44  55 SW32G40   29.75F
LANCASTER      SUNNY     60  43  53 SW29G38   29.75R
EDWARDS AFB    MOSUNNY   66  40  38 SW28G37   29.70S
DAGGETT        SUNNY     77  34  21 SW23G33   29.66R
29 PALMS N     SUNNY     76  34  21 SW20      29.72F
NEEDLES        SUNNY     86  31  13 S14G22    29.62F

$$

REGIONAL REPORTS

CITY           SKY/WX    TMP DP  RH WIND       PRES   REMARKS
SANTA BARBARA  SUNNY     64  47  53 W14G21    29.82F
SANDBERG       SUNNY     53  43  68 SW10      29.85F
MT. WILSON       N/A     43  43 100 SW3         N/A
LAS VEGAS NV   MOSUNNY   82  23  11 SW21G29   29.56S
PHOENIX AZ     MOSUNNY   87  37  17 W18       29.65R
TIJUANA        CLOUDY    61  50  67 W13       29.90R
ENSENADA NW      N/A     61  32  33 W3        29.87S

$$

OFFSHORE ISLANDS

CITY           SKY/WX    TMP DP  RH WIND       PRES   REMARKS
CATALINA ARPT  CLOUDY    53  48  83 W9        29.88R
SAN CLEMENTE I CLOUDY    59  49  69 W15       29.89S
SAN NICOLAS IS MOSUNNY  N/A N/A N/A NW26G35   29.88S

$$

MARINE AND OFFSHORE BUOY REPORTS

STATION/POSITION SKY/WX   TEMP    WIND        PRES    SWELL
                          AIR SEA DIR/SP/G            HT/PER/DIR
                          (F)     (DEG/KT/KT) (MB)    (FT/S/D)
TANNER BANKS               58 61  320/ 19/ 25 1012.5S   7/310/12
S CLEMENTE BASIN           59 64  290/ 12/ 14 1011.7S   5/270/12
SAN NICOLAS IS.               59                N/A     7/310/13
SO. S. ROSA ISLA           57 60  310/ 21/ 25 1011.3F   8/11
W. S. BARBARA CH           56 56  320/ 17/ 23 1011.6F   7/310/11
S. MONICA BASIN            59 60  280/  6/  8 1011.4F   5/180/15
S PEDRO CHANNEL               64                N/A     2/190/15
DANA POINT                    60                N/A     3/190/15
OCEANSIDE OFFSHR              63                N/A     3/190/15
TORREY PINES OTR              64                N/A     3/200/15
LA JOLLA 1                 61 66  290/  9/ 10 1011.3F
MISSION BAY BUOY              64                N/A     3/200/15
SAN DIEGO BAY                 68              1011.8S
POINT LOMA SOUTH              65                N/A     3/200/15

$$



USA.gov is the U.S. government's official web portal to all federal, state and local government web resources and services.